GFSNGP_850_thetae_057.txt.gz
Theta_e
306 306 307 308 308 307 306 305 306 306 305 305 304 303 305 306 307 307 306 306 306 305 305 305 304 303 303 303 302 299 296 295 294 294 294 293 292 292 293 293 293 293 294 294
307 308 307 309 307 307 306 306 304 304 305 304 305 306 306 306 306 306 306 305 305 305 304 304 303 302 302 301 299 296 295 294 294 293 292 292 293 293 293 293 293 294 294 295
308 304 306 307 308 309 308 306 306 306 305 305 305 305 306 306 305 306 305 305 304 304 304 303 302 302 301 299 296 295 294 293 292 292 292 292 293 293 293 293 294 294 295 296
303 304 306 304 306 306 307 307 305 305 306 306 306 306 306 306 305 305 304 304 304 304 303 302 302 301 299 296 295 294 293 292 292 291 292 292 293 293 294 294 294 295 296 297
302 302 303 307 305 305 307 307 305 306 305 306 305 304 305 304 304 304 304 303 303 303 302 302 301 300 297 295 294 293 292 291 291 291 292 293 293 293 294 294 295 296 297 297
302 300 302 303 305 305 304 303 306 306 305 304 304 300 299 304 304 303 303 303 303 302 301 300 299 298 295 294 293 292 291 290 290 291 292 293 293 294 294 295 296 297 297 298
300 299 303 303 306 305 306 303 305 304 304 304 302 303 303 302 302 302 302 302 303 301 300 300 298 296 294 293 292 291 291 290 290 292 293 293 294 294 295 297 297 297 298 298
299 300 304 305 304 306 303 304 304 303 303 302 302 302 301 301 301 301 302 302 301 300 299 298 296 294 293 292 291 291 290 290 291 293 293 293 294 295 297 297 297 298 297 297
302 303 304 305 304 304 304 303 303 302 302 302 301 301 301 301 301 301 302 301 300 299 298 296 294 293 292 291 291 291 290 290 292 292 293 294 294 295 296 297 296 298 298 297
303 304 304 303 303 303 303 303 302 301 301 301 301 301 301 300 301 301 301 300 299 298 297 295 294 293 291 291 291 290 290 291 291 293 293 295 295 295 296 296 297 298 297 298
302 302 302 303 303 303 302 300 300 301 301 300 300 300 300 300 300 300 300 299 298 297 295 294 293 292 291 291 291 290 291 292 292 292 293 294 294 295 295 295 296 296 297 297
303 304 303 303 303 303 301 300 299 299 299 299 300 300 299 300 300 299 299 298 297 295 294 293 293 291 291 291 290 290 291 292 292 292 293 293 293 294 295 295 295 296 296 296
305 304 304 303 303 302 301 300 300 300 299 299 299 299 300 299 299 299 299 297 296 294 294 293 292 291 291 291 289 290 291 291 292 294 293 293 293 293 294 295 295 295 295 295
304 304 302 302 302 301 300 300 300 300 300 300 300 299 299 299 299 299 298 297 295 294 294 293 292 291 291 290 289 290 291 291 292 292 293 293 293 293 293 294 294 294 295 295
303 303 303 302 301 300 300 300 300 300 300 300 300 300 300 299 299 298 298 297 295 294 293 292 291 291 291 289 289 290 291 291 291 292 293 293 293 293 293 294 294 294 294 294
303 302 301 301 300 299 300 300 301 300 300 300 300 300 299 299 299 298 298 296 295 294 293 292 291 291 291 289 289 291 291 291 292 292 293 293 293 293 294 293 293 293 293 294
302 301 301 300 300 301 301 301 300 301 300 300 299 299 299 299 298 298 298 296 296 294 293 292 292 291 290 288 289 291 291 291 292 292 292 292 293 293 293 293 293 293 293 292
303 303 303 301 302 301 301 301 301 301 300 299 299 299 299 299 298 298 297 297 294 295 293 292 291 291 290 288 290 291 291 291 292 292 292 293 293 294 293 293 293 292 292 291
303 303 303 303 302 301 300 300 300 299 299 299 299 299 299 299 298 298 297 296 294 294 293 292 292 291 289 289 290 290 291 291 291 292 292 292 293 293 293 293 292 292 292 291
303 303 302 300 300 300 300 300 300 300 299 299 299 299 299 299 298 298 297 297 294 294 293 292 292 291 289 290 289 290 290 290 291 291 292 292 293 293 293 292 292 292 291 290
300 300 300 300 300 300 300 300 300 299 299 299 299 299 299 299 298 298 297 296 294 294 293 292 291 290 289 290 289 290 290 290 290 291 291 291 292 292 292 292 292 291 291 290
300 300 300 300 300 300 300 300 300 299 299 299 299 299 299 299 299 298 297 296 294 295 293 292 291 290 290 289 288 289 290 290 290 290 290 291 291 292 292 292 292 292 291 291
299 299 300 300 300 300 300 300 300 299 299 299 299 298 298 299 298 298 297 295 295 294 293 292 291 289 289 288 288 289 289 290 289 289 289 290 291 291 292 291 291 291 292 292
299 300 300 300 300 299 299 299 299 299 299 299 299 298 298 298 298 297 296 295 295 294 293 292 291 289 288 288 288 288 289 290 289 289 289 289 290 290 290 291 290 290 291 291
299 300 300 300 299 299 299 299 299 299 299 299 298 298 298 298 298 297 296 295 295 293 292 291 290 288 288 288 288 288 288 289 290 289 289 289 289 289 289 290 289 290 290 290
299 299 299 299 299 299 299 299 299 298 298 298 297 297 298 298 297 297 296 296 294 293 292 291 290 288 287 287 287 288 288 288 288 289 289 289 289 289 289 289 289 289 288 289
299 299 299 299 299 298 297 296 295 295 295 296 296 296 297 298 297 297 296 296 294 293 292 290 289 287 287 287 287 288 288 288 287 287 288 288 288 289 289 288 288 287 288 288

GFSNGP_850_thetae_060.txt.gz
Theta_e
306 305 307 307 307 305 304 304 306 306 304 305 303 303 305 305 306 306 306 305 305 304 304 304 304 303 302 302 302 302 299 296 295 294 293 293 292 292 293 294 294 294 293 294
307 307 306 308 307 305 305 305 303 303 303 304 304 305 305 305 306 306 305 305 304 304 304 303 303 302 302 302 301 299 296 294 294 293 292 292 291 292 294 295 294 294 294 295
309 303 305 307 306 306 307 304 305 306 304 304 305 305 306 306 305 305 304 304 304 303 303 303 303 301 301 300 299 296 294 294 293 292 291 291 291 293 294 295 295 295 296 296
303 303 306 305 304 305 306 306 305 305 305 305 305 306 305 305 304 304 304 303 303 303 303 303 301 300 300 299 297 294 293 293 292 291 290 291 292 294 295 294 295 295 296 297
302 301 302 305 305 306 307 307 304 304 305 305 304 303 304 304 303 303 302 302 302 302 302 301 300 300 299 297 294 293 293 292 291 290 290 291 293 293 294 294 295 296 296 297
301 299 301 301 304 305 304 304 305 305 304 303 303 299 298 302 302 301 301 301 301 302 301 300 299 299 297 294 293 293 292 291 291 290 291 293 293 293 294 294 296 296 297 298
301 298 302 301 304 304 306 303 305 304 303 303 301 302 302 301 301 301 301 301 301 301 300 299 299 297 295 294 293 292 291 291 290 291 292 292 293 293 293 295 295 296 296 296
299 300 303 303 304 305 303 304 304 303 302 302 301 301 301 300 300 300 300 301 301 300 299 299 297 295 294 293 292 291 291 291 290 292 291 293 293 293 294 294 294 295 296 296
300 302 302 305 303 303 304 303 302 302 301 301 300 300 300 300 299 300 300 301 300 300 299 298 295 294 293 292 291 291 291 290 290 292 292 293 293 294 294 294 294 296 296 296
302 303 303 304 303 303 303 303 301 300 300 300 300 299 299 299 299 300 300 300 299 299 297 296 294 294 293 291 291 291 290 290 291 292 292 293 293 293 293 294 295 296 296 296
301 301 302 302 303 303 302 300 300 299 299 299 299 299 299 299 299 299 299 299 298 297 296 294 294 293 292 291 291 290 289 290 291 292 292 292 293 293 293 294 295 295 295 296
302 304 303 303 303 303 301 299 299 299 299 299 299 299 299 299 299 299 299 299 298 297 295 294 294 293 291 291 291 289 289 290 291 292 291 292 292 293 293 294 294 295 295 296
305 305 304 303 303 302 300 300 300 300 299 300 299 299 299 299 299 299 299 298 297 297 294 294 293 292 291 291 291 289 289 290 290 291 291 292 292 292 293 293 294 294 294 294
304 303 302 303 302 301 300 300 300 300 300 300 300 299 300 299 299 299 298 298 297 296 294 294 293 292 291 291 290 289 289 291 291 291 291 292 292 293 293 293 293 293 293 293
303 303 303 303 301 300 299 300 300 300 301 300 300 299 299 299 299 299 298 298 297 296 295 294 294 292 291 291 289 289 290 291 291 291 292 292 293 293 293 293 293 293 292 292
303 303 302 301 300 299 299 300 300 300 300 300 300 300 299 299 299 299 298 298 297 296 295 294 294 292 291 291 289 289 290 291 291 291 292 292 292 292 293 293 293 292 292 291
302 302 302 301 300 300 301 301 301 301 300 300 300 299 299 299 299 299 298 298 297 296 294 294 293 292 291 290 289 289 290 290 291 292 292 292 292 292 293 292 292 292 291 291
303 303 303 302 300 300 301 301 300 300 299 299 299 299 299 299 299 298 298 298 297 296 294 294 293 292 291 290 289 289 290 290 291 291 292 292 292 292 292 292 292 292 291 290
303 303 303 303 302 302 301 300 300 299 299 299 299 299 299 299 299 299 298 298 297 296 294 294 293 292 291 290 289 289 290 290 290 290 291 291 292 292 292 292 292 291 290 290
302 302 302 302 300 300 300 300 300 300 300 299 299 299 299 299 299 299 298 298 297 295 294 294 293 292 290 289 289 288 290 290 290 290 290 291 291 292 292 292 291 291 291 291
300 300 300 300 300 300 299 300 300 300 299 299 299 299 299 299 299 298 298 298 296 295 294 293 292 291 290 289 288 288 289 290 290 289 290 290 290 291 291 291 291 291 291 290
300 300 300 299 299 299 299 300 299 299 299 299 299 299 299 298 298 298 298 298 296 295 294 293 292 291 290 288 288 288 289 290 290 289 289 289 290 290 290 290 290 290 291 290
300 299 299 299 299 299 299 299 299 299 299 299 299 299 299 298 298 298 298 297 296 294 294 293 292 291 289 288 288 288 289 289 290 289 289 289 289 289 290 290 290 290 290 289
298 298 299 299 299 299 299 299 299 299 299 299 299 298 298 298 298 298 297 296 295 294 294 293 291 290 288 288 288 288 288 289 289 289 289 289 289 289 289 289 289 288 289 288
298 299 299 299 299 299 299 299 299 299 298 298 298 297 297 297 298 298 297 296 295 295 293 292 291 290 288 287 287 288 288 288 288 288 289 289 289 289 288 288 288 288 288 287
299 299 299 299 299 299 299 298 297 295 294 294 295 295 296 296 297 297 296 296 296 294 293 292 290 289 287 287 287 287 288 288 288 287 288 288 288 288 288 288 288 287 287 287
299 299 299 299 298 298 298 296 295 294 293 293 293 294 295 295 296 298 297 296 295 293 293 291 290 288 287 287 287 287 287 288 288 288 288 288 288 288 288 288 288 287 287 287

GFSNGP_850_thetae_063.txt.gz
Theta_e
305 305 306 307 307 304 306 305 309 308 305 306 304 304 304 305 305 306 306 305 305 304 303 303 303 303 302 301 301 301 301 300 297 295 294 293 292 291 291 292 294 295 295 296
307 306 306 308 307 306 305 305 304 304 306 303 304 304 305 305 305 305 305 304 304 303 303 303 303 303 302 300 301 301 300 297 294 293 292 292 291 291 291 293 295 295 296 296
311 304 305 310 307 307 307 305 306 308 307 304 304 304 305 305 305 304 304 303 302 302 302 302 302 302 300 300 300 299 297 294 293 292 292 291 291 292 293 294 294 295 296 296
309 305 310 307 304 305 306 306 304 304 304 304 305 305 304 304 304 303 302 301 301 301 301 302 301 300 300 299 299 296 294 293 292 291 291 291 291 293 293 293 294 294 295 296
308 306 304 304 304 306 307 307 305 305 304 305 304 303 303 304 303 301 301 300 301 300 301 301 300 299 299 299 296 294 293 292 291 291 291 291 292 293 293 293 294 294 295 295
303 304 305 302 303 304 304 308 304 304 304 303 302 304 303 302 301 300 300 300 300 301 301 300 299 299 298 296 294 293 292 291 291 291 291 291 292 293 293 294 294 294 294 295
305 305 305 302 303 304 307 307 304 304 303 303 303 302 301 301 300 299 299 300 300 300 300 299 299 298 296 294 294 293 292 291 291 290 290 292 292 293 293 293 294 294 294 296
302 304 306 303 303 307 305 304 304 303 303 302 301 300 300 299 299 299 299 299 300 300 299 299 298 296 295 294 293 292 291 291 291 290 291 292 292 293 293 293 293 293 294 295
304 305 301 304 304 304 304 304 303 303 302 300 299 299 299 299 299 299 299 299 299 299 299 298 296 295 294 294 292 291 291 291 290 290 290 292 292 292 292 293 293 294 295 295
304 302 301 304 304 303 303 303 302 300 300 299 299 298 298 298 298 298 299 299 299 299 298 297 295 294 294 293 292 291 291 290 289 290 291 291 292 292 293 293 294 295 295 295
302 301 302 303 303 303 303 301 300 299 299 298 298 298 299 299 299 299 298 299 299 298 298 297 295 294 294 292 291 291 290 289 289 291 291 291 292 292 293 293 294 294 295 295
305 303 304 304 304 303 302 300 299 299 299 299 299 299 299 299 299 299 299 298 298 298 297 297 294 294 293 292 291 291 289 289 289 291 290 291 292 292 293 293 294 294 294 295
305 305 304 304 303 303 301 299 299 299 299 299 300 300 299 299 299 299 299 298 298 298 297 296 294 294 293 292 291 291 289 289 290 291 291 291 292 292 292 293 293 293 293 292
305 304 302 302 303 302 300 299 300 299 300 300 300 300 300 299 299 299 299 298 298 297 297 295 295 294 293 292 291 290 289 290 291 290 291 291 292 292 292 292 292 292 292 291
303 303 303 303 302 302 300 299 299 300 300 300 300 300 300 299 299 299 299 298 298 298 297 296 295 294 293 291 291 289 289 290 290 290 291 291 292 292 292 292 292 292 292 291
302 302 303 302 302 300 299 299 300 300 300 300 300 300 299 299 299 299 299 298 298 298 297 296 294 293 293 291 291 289 289 290 290 291 291 291 292 292 292 292 291 292 291 290
302 301 302 301 301 300 299 300 300 301 300 299 299 299 299 299 299 299 299 298 298 298 297 296 294 294 293 291 290 289 289 290 290 291 290 291 291 292 292 292 292 291 291 291
303 302 302 302 302 300 299 301 301 299 299 299 299 299 299 299 299 299 299 298 298 298 297 295 294 294 292 291 290 289 288 290 290 290 290 291 291 291 292 292 291 291 292 291
302 302 302 302 302 302 302 300 300 300 299 299 299 299 299 299 299 298 298 298 298 298 297 295 294 293 292 290 290 289 288 289 290 290 290 290 290 291 291 291 291 291 291 291
301 302 302 302 302 300 300 300 299 299 299 299 299 299 299 299 299 298 298 298 298 298 296 295 294 293 291 290 289 288 288 289 290 289 289 289 290 290 290 290 290 290 290 291
302 301 300 299 299 300 299 299 299 299 299 299 299 299 299 299 299 298 298 298 298 297 296 294 294 292 291 290 288 288 288 289 290 289 289 289 289 289 289 290 290 290 290 289
299 299 299 299 299 299 299 299 299 299 299 299 299 299 299 299 299 298 297 298 298 297 295 294 293 292 291 289 287 288 288 289 289 289 289 289 289 289 289 289 289 288 289 288
299 299 299 299 299 299 299 299 299 299 299 299 299 299 299 298 298 297 297 298 297 296 294 294 293 292 290 288 287 287 288 288 289 289 289 289 289 288 288 288 288 288 287 288
298 298 298 298 299 299 299 299 299 299 299 298 298 296 296 297 297 297 298 296 296 295 294 293 292 291 289 287 287 287 288 288 288 288 288 288 288 288 288 288 287 287 287 287
297 298 299 299 299 299 299 298 298 298 296 295 294 293 294 294 295 296 297 296 296 295 295 293 292 290 288 287 287 287 288 288 288 288 288 288 288 288 288 288 287 287 287 287
299 299 298 299 299 299 298 298 297 296 295 294 293 292 293 294 294 295 296 296 296 295 294 293 291 290 287 287 287 287 287 287 288 289 288 288 288 287 287 287 287 288 287 287
298 298 299 299 298 298 297 297 296 294 293 293 292 292 292 293 294 295 296 296 295 294 293 292 290 288 287 286 286 286 287 287 287 288 288 288 288 287 287 286 287 287 287 287

GFSNGP_850_thetae_069.txt.gz
Theta_e
312 312 313 314 314 313 314 315 316 317 315 315 314 313 312 311 310 310 309 309 307 306 305 304 304 303 303 303 302 301 300 300 300 299 298 296 296 295 295 294 294 295 295 296
314 312 313 313 314 313 313 314 314 314 314 315 314 312 311 310 310 309 309 308 306 304 303 303 303 303 302 302 301 300 300 300 299 297 296 295 295 294 294 294 295 295 295 295
319 315 315 318 317 317 316 314 314 314 314 312 311 311 310 310 309 309 307 305 304 303 303 302 302 301 301 301 300 300 299 298 297 296 295 295 294 294 294 294 294 295 295 294
321 317 318 314 312 313 314 313 313 313 312 312 311 310 310 309 309 307 305 303 302 302 302 302 301 301 300 300 300 299 298 297 296 295 295 294 294 294 294 294 295 294 294 294
321 318 316 311 310 311 312 312 313 312 312 311 310 310 310 307 305 304 303 302 301 301 301 301 301 300 299 299 299 298 297 297 295 294 294 294 293 293 293 294 293 293 293 294
315 325 318 312 310 309 310 312 311 311 312 311 310 311 309 306 303 302 302 301 301 301 301 300 300 300 299 299 298 297 297 295 294 294 294 293 293 293 294 293 293 293 293 293
315 317 314 311 309 309 311 314 311 311 311 310 310 309 306 303 302 301 301 301 301 301 300 300 300 299 298 298 297 297 296 295 294 294 293 293 293 294 293 293 293 293 293 293
314 316 317 309 309 311 313 310 310 310 310 309 308 304 302 302 301 301 301 300 300 300 300 300 300 299 298 298 297 296 295 294 294 294 293 293 293 293 293 292 293 293 293 294
314 315 311 309 311 309 309 310 309 309 307 307 304 302 301 301 301 301 301 300 300 300 300 300 300 299 298 298 296 295 295 294 294 293 292 293 293 292 292 293 293 293 293 295
312 312 310 309 309 308 307 308 308 307 306 303 303 301 301 301 301 301 300 300 300 300 300 300 299 299 298 297 296 295 295 294 294 293 292 292 292 292 292 293 293 293 294 294
311 311 310 309 308 309 307 306 306 304 303 302 301 301 301 301 301 301 301 301 300 300 300 300 299 299 298 297 295 295 294 294 293 292 292 291 291 292 293 292 293 293 294 293
311 311 311 310 309 308 307 305 304 303 301 301 301 301 301 301 301 301 301 301 300 300 300 300 299 298 298 296 295 294 294 294 293 292 291 291 292 292 292 292 293 293 293 293
310 308 308 307 307 306 306 305 303 302 301 301 301 301 301 301 301 301 301 300 300 300 300 299 299 298 297 296 295 294 294 293 292 291 291 291 292 292 291 292 292 293 292 293
307 306 307 306 306 305 305 303 301 301 301 301 301 301 301 301 300 300 300 300 300 299 299 299 298 297 297 295 294 294 294 292 292 291 290 291 291 291 291 291 291 292 292 292
306 306 306 306 305 304 303 302 301 301 301 301 301 301 301 300 300 300 300 300 299 299 299 299 298 297 296 295 294 294 293 292 291 290 290 291 291 291 291 291 291 291 292 292
306 304 305 305 304 303 303 302 301 301 301 301 301 301 300 300 299 300 300 300 299 299 299 298 298 297 296 294 294 293 292 291 290 290 290 291 291 290 290 290 290 291 291 291
304 304 304 305 304 303 303 302 301 301 301 301 300 300 299 299 299 300 300 299 299 299 298 298 297 296 296 294 293 292 291 290 290 289 290 290 290 290 289 289 290 290 290 290
305 304 304 304 303 303 302 301 300 300 301 300 299 299 299 299 299 299 299 299 299 299 298 298 297 296 294 294 292 292 291 291 289 289 290 290 290 290 289 289 289 290 289 289
303 303 303 303 303 302 302 301 301 300 299 299 299 299 299 299 299 299 298 299 299 299 298 297 297 295 294 293 292 291 290 290 289 289 290 290 289 290 289 289 289 289 289 289
302 302 302 302 302 302 302 300 300 299 299 299 298 298 298 298 298 298 298 299 299 299 298 297 296 294 294 292 291 288 290 289 290 289 290 289 289 289 289 289 288 288 288 289
302 302 302 302 301 301 300 299 299 299 299 299 298 298 298 298 298 298 298 298 298 298 296 295 295 294 293 292 289 288 289 289 290 289 289 289 288 288 289 288 288 288 288 288
302 301 300 300 300 300 299 299 299 298 299 298 298 298 296 296 295 295 295 296 297 296 295 294 294 294 293 291 288 287 288 289 289 289 289 288 288 288 288 288 288 288 288 288
300 299 299 299 299 299 298 299 299 298 298 298 298 296 295 294 294 294 294 295 295 296 295 294 294 293 292 289 287 287 288 288 289 288 288 288 288 288 288 287 288 288 288 288
298 298 298 297 297 297 299 299 298 298 298 298 296 295 294 294 293 293 293 294 294 296 294 294 294 293 291 288 287 287 287 287 288 288 288 288 288 288 287 287 287 288 288 288
298 298 297 298 299 299 298 299 298 298 297 297 296 295 294 294 293 293 293 294 294 295 294 294 293 291 288 287 287 286 287 287 286 288 288 288 288 288 287 287 287 287 288 288
298 299 298 298 298 298 298 298 297 297 296 295 295 294 294 293 293 294 294 294 294 294 294 293 292 289 287 287 286 286 286 286 286 288 288 287 287 287 287 287 287 287 287 288
297 298 298 298 298 298 298 297 296 296 295 294 294 294 293 293 293 294 295 294 294 294 293 292 291 288 287 286 286 286 285 286 286 287 288 287 287 287 287 287 287 287 287 287

GFSNGP_850_thetae_072.txt.gz
Theta_e
312 312 312 313 315 314 313 313 314 316 315 313 311 311 312 311 311 310 310 309 308 306 305 304 303 303 303 302 302 302 301 301 300 300 300 298 296 296 295 295 294 294 294 294
313 313 313 314 314 313 314 313 313 313 314 312 312 312 312 311 311 310 310 308 306 304 303 303 303 302 302 301 301 301 300 300 300 298 297 296 296 295 294 294 294 294 294 295
319 316 316 317 316 316 315 315 314 313 313 312 311 311 311 311 310 310 308 306 304 303 302 302 302 302 301 301 300 300 300 299 297 297 296 296 295 294 294 293 293 293 294 294
321 318 318 313 311 313 316 314 314 313 312 312 311 311 310 310 310 307 306 304 303 302 302 301 301 301 301 300 300 299 299 297 297 297 296 295 294 294 293 293 293 294 293 293
321 319 317 311 310 311 311 312 312 312 311 311 311 310 310 308 307 304 303 302 302 301 301 301 300 300 300 299 299 298 297 297 297 296 295 294 294 293 293 293 294 294 293 293
316 322 318 313 310 310 311 310 312 312 311 311 310 308 306 305 304 303 302 301 301 301 300 300 300 300 300 299 298 298 297 297 296 295 294 294 294 293 293 293 293 292 293 293
315 318 316 310 309 310 311 313 311 311 311 311 309 308 306 303 302 302 301 301 300 300 301 300 300 300 300 299 298 298 297 297 295 295 294 294 293 293 293 293 292 293 293 293
313 316 314 309 309 311 312 311 311 310 310 310 308 304 303 302 302 301 301 301 300 300 300 300 300 300 300 299 299 298 297 296 295 295 294 293 293 293 293 292 293 293 293 293
315 316 311 309 311 311 311 311 310 309 309 308 306 303 302 302 301 301 301 301 300 300 300 300 300 300 299 299 298 297 296 295 295 294 294 293 292 292 291 292 292 292 292 293
310 311 310 310 310 309 308 309 309 309 307 306 303 302 301 301 301 301 301 301 301 301 301 300 300 300 299 299 298 297 296 295 294 294 293 293 292 291 292 292 292 292 293 293
309 310 310 310 309 309 308 307 307 307 305 303 302 301 301 301 301 301 301 301 301 301 300 300 300 299 299 298 298 297 296 295 294 294 293 292 291 292 292 292 292 293 293 293
310 310 311 311 310 308 308 307 306 304 302 302 301 301 301 301 301 301 301 301 300 300 300 300 299 299 298 298 297 296 295 294 294 293 292 291 291 291 291 291 291 292 293 293
310 309 309 308 308 308 307 306 304 303 302 301 301 301 301 301 301 301 300 300 300 300 299 299 299 299 298 297 297 296 294 294 293 293 292 290 291 291 291 291 291 291 292 292
309 308 307 306 307 307 306 305 303 302 301 301 301 301 301 301 301 300 300 300 300 299 299 299 299 299 298 297 296 295 294 294 293 292 290 290 291 291 290 290 290 290 291 291
308 307 307 307 306 305 305 303 301 301 301 301 301 301 301 301 300 300 299 300 300 299 299 299 299 298 297 297 296 294 294 293 292 290 289 290 291 291 290 290 290 290 290 290
307 306 306 305 305 304 303 302 301 301 301 301 301 301 300 300 299 299 299 300 299 299 299 298 298 298 297 296 295 294 293 292 291 291 290 290 290 290 290 290 289 289 289 290
306 305 305 305 304 303 303 302 301 301 301 301 301 300 299 299 299 299 299 299 299 299 299 299 298 298 297 295 294 293 292 291 291 290 290 290 290 290 289 289 289 289 289 289
305 305 305 305 304 303 303 302 301 300 300 300 300 299 299 299 299 299 299 299 299 299 299 299 298 297 296 294 294 292 290 290 290 289 290 290 290 289 289 289 289 288 289 289
305 304 304 304 303 303 302 301 300 301 300 299 299 298 298 298 298 298 298 298 298 299 298 298 296 296 294 293 293 290 288 290 289 289 290 290 289 289 289 289 288 288 288 289
303 303 303 303 302 302 301 301 300 300 299 299 298 298 298 298 298 298 298 297 297 297 298 296 294 294 293 293 291 289 288 289 289 289 289 289 288 288 288 288 288 288 288 288
302 302 302 302 302 301 301 300 299 299 298 298 298 298 297 296 296 295 295 295 296 297 297 295 294 294 293 292 290 288 288 289 289 289 289 289 289 288 288 288 288 288 288 288
302 302 302 301 300 300 299 299 298 298 298 298 298 297 296 295 294 294 293 294 294 295 296 295 294 294 293 291 288 287 288 288 288 288 288 288 288 288 288 287 287 288 288 288
301 301 300 300 299 299 299 298 298 298 298 298 297 296 296 294 294 293 293 293 293 294 295 294 294 293 292 289 287 287 287 287 287 288 288 288 288 288 288 288 287 287 288 288
300 299 299 298 297 297 299 299 298 298 298 297 297 296 295 294 293 293 293 293 294 294 294 294 293 292 289 287 287 286 286 286 286 288 288 287 287 287 288 288 287 287 287 287
298 298 297 297 298 298 298 298 298 298 297 297 296 295 294 293 293 293 293 293 294 294 293 293 293 290 288 287 286 286 286 286 286 288 288 287 287 287 288 287 287 287 287 287
298 297 297 298 298 298 298 298 297 297 296 295 294 294 294 293 293 293 294 294 294 294 293 293 291 288 287 286 286 286 285 285 286 288 288 287 287 287 287 287 287 287 287 287
298 298 298 298 298 298 298 297 296 296 295 294 293 293 293 292 292 293 294 294 293 293 292 291 289 287 286 286 286 285 285 285 285 286 287 288 288 288 288 287 287 286 286 287

GFSNGP_850_thetae_075.txt.gz
Theta_e
310 311 311 312 313 312 312 310 311 312 311 309 308 307 310 311 310 310 309 309 308 307 306 305 303 303 302 302 301 301 301 301 300 300 300 299 297 296 296 295 294 294 293 293
311 311 312 312 312 312 311 311 311 312 312 310 309 310 309 311 310 310 309 306 305 305 304 303 302 302 301 300 300 301 301 300 300 299 297 297 297 296 295 294 293 293 293 293
316 315 314 314 313 313 312 313 311 312 310 309 308 308 309 310 310 308 307 305 305 303 302 302 301 301 300 300 300 300 299 299 299 297 297 297 296 295 295 293 293 292 293 293
313 314 316 313 310 311 312 313 311 310 310 310 309 309 310 310 309 306 305 304 303 302 301 301 300 300 300 300 300 299 298 298 297 297 297 296 295 295 294 293 292 293 293 293
314 314 313 310 309 310 311 311 310 310 309 310 310 309 305 306 307 306 304 303 302 301 300 299 300 300 300 300 299 299 298 297 297 297 297 295 295 294 294 292 292 293 293 292
311 311 310 310 308 310 307 303 310 310 308 308 309 305 303 304 304 303 302 301 301 300 300 300 300 300 300 300 299 299 298 298 298 297 296 295 294 294 292 292 293 292 292 293
310 308 310 310 308 310 302 303 310 310 310 309 306 307 305 303 302 302 301 300 300 299 300 300 300 299 299 299 299 299 298 298 298 296 295 294 294 293 292 292 292 292 292 292
308 310 310 308 308 305 305 310 310 310 310 310 307 305 303 302 301 301 301 300 300 300 300 300 300 300 299 299 299 299 298 298 297 296 295 294 293 293 292 291 292 292 292 292
308 308 309 309 309 310 310 310 310 309 309 309 306 304 302 301 301 301 300 300 300 300 300 300 300 300 300 299 299 299 298 298 297 295 294 294 293 292 291 291 292 292 292 292
306 307 308 310 310 310 310 310 309 309 308 307 305 302 301 301 301 300 300 301 301 301 300 300 300 300 300 299 298 298 298 297 296 294 294 293 293 291 291 292 292 292 293 292
304 305 309 310 309 309 308 308 308 308 307 305 303 301 301 301 300 300 300 301 301 300 300 300 300 299 299 298 298 298 297 296 295 294 294 293 292 290 291 291 292 292 292 292
304 307 308 309 310 309 308 307 307 306 304 302 302 301 301 300 300 300 300 300 300 300 300 299 298 299 299 299 298 297 297 295 294 294 293 292 290 291 291 291 290 290 291 291
308 309 310 309 309 308 308 307 306 304 303 301 301 300 300 300 301 301 300 300 300 299 299 299 299 299 299 298 298 297 296 294 294 293 292 290 290 291 291 291 290 289 290 290
309 309 307 307 307 308 307 306 304 302 302 301 301 301 300 300 301 300 300 299 299 299 299 299 299 298 298 297 297 296 295 294 293 292 290 290 290 290 290 290 290 289 289 289
308 308 308 306 306 306 306 304 302 301 301 301 300 300 301 301 300 299 299 299 299 299 299 298 298 298 298 298 297 295 294 293 292 291 290 290 290 290 290 289 290 289 289 289
307 307 307 307 306 305 304 303 301 301 301 301 301 301 301 300 299 299 299 299 299 299 298 299 298 298 298 297 296 294 293 291 291 290 289 290 290 290 289 289 289 289 289 289
307 305 305 305 305 304 303 302 301 301 301 301 300 300 300 299 298 298 298 299 299 298 299 298 298 297 296 295 294 294 292 289 289 289 289 290 290 289 289 288 288 288 288 288
307 306 305 305 304 303 302 302 301 301 300 300 300 299 298 298 298 298 298 298 298 298 299 298 297 296 295 294 293 292 289 288 289 289 289 290 289 288 288 288 288 288 288 288
305 305 305 304 304 303 302 301 301 300 300 300 299 298 298 298 298 297 298 298 297 296 297 297 295 294 294 293 292 290 288 288 288 289 289 289 289 288 288 288 288 288 288 288
304 305 304 304 303 302 302 301 300 300 300 299 298 298 297 297 296 295 295 295 295 295 297 295 294 294 293 292 291 288 288 288 288 289 288 288 288 288 288 287 287 288 288 288
304 303 303 303 302 302 301 301 300 299 298 298 298 297 297 296 295 294 293 294 294 294 294 296 294 294 293 292 288 287 287 287 287 288 288 288 288 287 288 288 287 287 287 287
303 302 302 301 301 301 300 299 298 297 298 298 297 297 296 295 294 293 292 293 293 293 294 294 293 293 292 289 287 287 287 287 287 287 288 288 287 287 287 287 287 287 287 287
302 301 301 300 300 299 298 297 297 298 298 297 297 296 295 294 293 293 292 293 293 293 294 293 293 292 290 287 286 286 286 286 287 288 288 287 287 287 287 287 287 287 287 287
301 300 300 299 299 298 297 298 298 298 297 297 296 295 294 293 293 293 293 293 294 294 293 292 292 290 287 286 286 286 286 286 287 288 288 287 287 287 287 287 287 287 287 287
300 299 298 297 296 297 298 298 297 297 297 296 295 294 294 293 292 292 293 293 293 293 293 292 291 287 286 286 286 285 285 285 286 288 288 288 288 288 287 287 287 286 286 286
299 298 297 297 297 298 298 297 297 297 296 295 294 293 293 292 292 293 293 294 293 293 292 291 287 286 286 286 285 285 285 285 285 287 287 287 287 287 287 287 287 286 286 286
298 297 297 298 298 298 297 297 296 295 294 294 292 292 292 292 292 293 293 293 293 292 291 289 287 286 286 286 286 285 285 285 285 285 286 287 287 287 287 287 287 286 286 286